sat.trackr.live / text

‹ back to catalog

STARLINK-37159

NORAD 68284 · 2026-055Y

PAYLOAD ACTIVE UNKNOWN

§ Identity

Operator
Country
US
Launch date
2026-03-19
Launch site
AFETR
Launch vehicle
Mass (kg)
RCS (m²)

Purposes: comms

External: N2YO · Heavens-Above · Gunter

§ Orbital elements

Epoch: 2026-09-20T04:31:09.487200Z

Period
93.85 min
Inclination
53.1585°
Eccentricity
0.0001291
Mean motion
15.34407799 rev/d
Perigee alt
461.8 km
Apogee alt
463.6 km
Semi-major
6,840.8 km
B*
4.2548e-4
RAAN
133.4484°
Arg perigee
63.6954°
Mean anomaly
296.4181°
Rev number
2,974

§ Raw data

STARLINK-371591 68284U 26055Y   26263.18830425  .00014030  00000+0  42548-3 0  99992 68284  53.1585 133.4484 0001291  63.6954 296.4181 15.34407799 29742

JSON: /api/v1/satellites/68284 · /tle

For live sub-satellite position, see the globe view (requires WebGL).

§ Visibility from observer

Set your observer location to see the next 7 days of passes ≥ 10°. The values pass through the URL so the page stays shareable.

No JS? Fill the form by hand. The geolocation button needs JavaScript.